Other Public Products
Issued by NWS Grand Forks, ND

Home | Current Version | Previous Version | Graphics & Text | Print | Product List | Glossary On
Versions: 1 2 3 4 5 6 7 8 9 10 11 12 13 14 15 16 17 18 19 20 21 22 23 24 25 26 27 28 29 30 31 32 33 34 35 36 37 38 39 40 41 42 43 44 45 46 47 48 49 50
214
FPUS83 KFGF 251810
OPUFGF
PRAIRIE TO PINES WEATHER ROUNDUP
NATIONAL WEATHER SERVICE EASTERN NORTH DAKOTA/GRAND FORKS ND
100 PM CDT TUE APR 25 2017

 **SATELLITE DATA USED TO AUGMENT SKY COVER AT AUTOMATED STATIONS**
 *****  WEATHER ACROSS EASTERN NORTH DAKOTA  *****

CITY           SKY/WX    TMP DP  RH WIND       PRES   REMARKS
GRAND FORKS    CLOUDY    35  28  75 N24       29.84R WCI  23
6HR MIN TEMP:  32; 6HR MAX TEMP:  36;

GRAND FORKS AF CLOUDY    33  27  78 NE26G33   29.84R WCI  20
GRAND CITY NWS NOT AVBL
BUXTON         NOT AVBL
DEVILS LAKE    CLOUDY    30  25  81 NE20G30   29.88S WCI  17
6HR MIN TEMP:  28; 6HR MAX TEMP:  30; 6HR PCP: TRACE;

FARGO          CLOUDY    37  31  78 N21G31    29.75S
6HR MIN TEMP:  32; 6HR MAX TEMP:  37;

WAHPETON ARPT  CLOUDY    37  32  81 N17G25    29.70S
$$

 *****  WEATHER ACROSS CENTRAL AND WESTERN NORTH DAKOTA  *****

CITY           SKY/WX    TMP DP  RH WIND       PRES   REMARKS
JAMESTOWN      CLOUDY    32  27  81 N21G26    29.81S WCI  20
6HR MIN TEMP:  29; 6HR MAX TEMP:  32;

BISMARCK       CLOUDY    32  26  78 N14G23    29.88R WCI  22
6HR MIN TEMP:  30; 6HR MAX TEMP:  33;

MINOT          CLOUDY    36  25  64 N20       29.92F
6HR MIN TEMP:  30; 6HR MAX TEMP:  36;

MINOT AFB      CLOUDY    35  24  64 N15G23    29.92F
6HR MIN TEMP:  28; 6HR MAX TEMP:  35;

GARRISON         N/A     32  23  69 NE15G23   29.89F WCI  22
6HR MIN TEMP:  28; 6HR MAX TEMP:  32;

WILLISTON      CLOUDY    37  23  56 E15       29.97S
6HR MIN TEMP:  30; 6HR MAX TEMP:  37;

DICKINSON      CLOUDY    27  23  85 N16       29.86R WCI  15
6HR MIN TEMP:  25; 6HR MAX TEMP:  27;

HETTINGER      CLOUDY    27  25  92 N16       29.85S FOG     WCI  15
6HR MIN TEMP:  26; 6HR MAX TEMP:  28;

$$

 *****  OTHER OBSERVATIONS NORTHEAST NORTH DAKOTA  *****

CITY           SKY/WX    TMP DP  RH WIND       PRES   REMARKS
WALHALLA       NOT AVBL
LANGDON        CLOUDY    32  27  80 NE23G31   29.89R WCI  19
CAVALIER       CLOUDY    32  25  74 N18G25    29.90S WCI  20
GRAFTON        CLOUDY    32  27  80 N23       29.88S WCI  19
CANDO          NOT AVBL
FORT TOTTEN      N/A     31  27  84 NE9       29.95S WCI  23
ROLLA          CLOUDY    32  27  80 N22G30    29.92R WCI  19
RUGBY          NOT AVBL
 ***** THE ABOVE OBSERVATIONS ARE NON NWS ARE NOT QUALITY
        CONTROLLED AND MAY MIS-REPORT RAIN FOR SNOW...
$$

 *****  OTHER OBSERVATIONS SOUTHEAST NORTH DAKOTA *****

CITY           SKY/WX    TMP DP  RH WIND       PRES   REMARKS
COOPERSTOWN    CLOUDY    32  28  86 NE23G32   29.83R WCI  19
VALLEY CITY    FLURRIES  32  32 100 N18G29    29.81S WCI  20
OAKES          NOT AVBL
GWINNER        CLOUDY    34  30  86 MISG      29.76S
SHEYENNE NWR     N/A     35  29  79 N17       29.95S WCI  25
BUFFALO        NOT AVBL
WYNDMERE         N/A     37  34  87 N20         N/A
 ***** THE ABOVE OBSERVATIONS ARE NON NWS ARE NOT QUALITY
       CONTROLLED AND MAY MIS-REPORT RAIN FOR SNOW...
$$

  *****  WEATHER ACROSS NORTHERN MINNESOTA  *****

CITY           SKY/WX    TMP DP  RH WIND       PRES   REMARKS
FLAG ISLAND    CLOUDY    28  25  86 N24       29.86F WCI  14
WARROAD        CLOUDY    32  27  80 N18       29.84F WCI  20
ROSEAU         CLOUDY    34  27  75 NE21      29.82F WCI  22
HALLOCK        CLOUDY    34  27  75 N22       29.87R WCI  22
THF RVR FALLS  CLOUDY    33  28  81 N18       29.80  WCI  22
6HR MIN TEMP:  30; 6HR MAX TEMP:  34;

HALSTAD          N/A     35  32  87 N21         N/A  WCI  24
FOSSTON        CLOUDY    36  36 100 N17       29.75R
BAUDETTE       CLOUDY    32  26  78 N18G25    29.79F WCI  20
6HR MIN TEMP:  31; 6HR MAX TEMP:  33;

WASKISH        CLOUDY    34  34 100 N9G18     29.76S
CROOKSTON      CLOUDY    36  28  75 NE15      29.82R
$$
  *****  WEATHER ACROSS CENTRAL AND WEST MINNESOTA  *****

CITY           SKY/WX    TMP DP  RH WIND       PRES   REMARKS
BEMIDJI        CLOUDY    35  33  93 N12       29.71F
PARK RAPIDS    CLOUDY    40  32  73 N14       29.66S
6HR MIN TEMP:  38; 6HR MAX TEMP:  41;

WADENA         CLOUDY    43  37  81 NE18      29.62F
DETROIT LAKES  CLOUDY    39  36  87 N8        29.68F
MOORHEAD       CLOUDY    37  30  75 N23G29    29.74F
FERGUS FALLS   CLOUDY    39  37  93 N12       29.66F
ELBOW LAKE     CLOUDY    42  38  86 N15       29.63F
6HR MIN TEMP:  35; 6HR MAX TEMP:  42;

MORRIS MN      CLOUDY    45  39  81 NW16      29.61S
STAPLES        CLOUDY    45  37  76 N14G21    29.61F
WHEATON        CLOUDY    37  34  87 NW22      29.69F
$$
  *****  WEATHER ELSEWHERE ACROSS MINNESOTA  *****

CITY           SKY/WX    TMP DP  RH WIND       PRES   REMARKS
DULUTH         CLOUDY    53  41  63 SE9       29.61S
6HR MIN TEMP:  41; 6HR MAX TEMP:  57; 6HR PCP:  0.06;

INTRNTL FALLS  CLOUDY    32  27  81 N17G24    29.78F WCI  21
6HR MIN TEMP:  32; 6HR MAX TEMP:  35; 6HR PCP: TRACE;

ELY            PTSUNNY   45  39  81 N7        29.68R
CLOQUET        FAIR      55  39  54 E8        29.60S
BRAINERD       FAIR      52  40  63 N14       29.61F
6HR MIN TEMP:  41; 6HR MAX TEMP:  52;

HIBBING        CLOUDY    48  40  73 N13       29.66R
6HR MIN TEMP:  38; 6HR MAX TEMP:  49;

ALEXANDRIA     CLOUDY    46  39  76 NE17      29.60F
6HR MIN TEMP:  40; 6HR MAX TEMP:  46;

SAINT CLOUD    FAIR      58  44  60 NE8       29.55F
6HR MIN TEMP:  46; 6HR MAX TEMP:  59;

MINNEAPOLIS    CLOUDY    56  46  69 W6        29.55S
6HR MIN TEMP:  52; 6HR MAX TEMP:  59;

$$

  *****  WEATHER ACROSS SOUTH DAKOTA  *****

CITY           SKY/WX    TMP DP  RH WIND       PRES   REMARKS
SIOUX FALLS    LGT RAIN  41  39  93 N14       29.58F
6HR MIN TEMP:  40; 6HR MAX TEMP:  43; 6HR PCP:  0.02;

BROOKINGS      CLOUDY    38  35  89 N20       29.60F
WATERTOWN      CLOUDY    35  32  88 N21G28    29.64F WCI  24
6HR MIN TEMP:  33; 6HR MAX TEMP:  36;

HURON          CLOUDY    38  33  82 N22G28    29.66F
6HR MIN TEMP:  34; 6HR MAX TEMP:  38;

SISSETON         N/A     36  33  89 N24G31    29.68F
ABERDEEN       CLOUDY    35  28  75 N23G31    29.74F WCI  23
6HR MIN TEMP:  33; 6HR MAX TEMP:  35;

MITCHELL       CLOUDY    42  34  73 N24       29.64F
PIERRE         CLOUDY    35  28  75 N20G28    29.72F WCI  24
6HR MIN TEMP:  34; 6HR MAX TEMP:  36; 6HR PCP: TRACE;

MOBRIDGE       CLOUDY    34  26  72 N18       29.78R WCI  23
RAPID CITY     LGT SNOW  30  28  92 N17       29.75S VSB 3/4 WCI  18
6HR MIN TEMP:  30; 6HR MAX TEMP:  32; 6HR PCP:  0.15;

$$

  *****  SOME WEATHER IN NEARBY STATES *****

CITY           SKY/WX    TMP DP  RH WIND       PRES   REMARKS
GLASGOW MT     CLOUDY    34  24  67 SE12      29.97R
6HR MIN TEMP:  29; 6HR MAX TEMP:  34;

GREAT FALLS MT CLOUDY    46  38  73 CALM      29.80F
6HR MIN TEMP:  39; 6HR MAX TEMP:  47; 6HR PCP:  0.01;

CHEYENNE WY    FAIR      48  25  40 W23       29.61R
6HR MIN TEMP:  35; 6HR MAX TEMP:  49;

SCOTTSBLUFF NE CLOUDY    46  40  79 NE25G31   29.60R
6HR MIN TEMP:  43; 6HR MAX TEMP:  57; 6HR PCP: TRACE;

OMAHA NE       CLOUDY    53  44  71 N17       29.48F
6HR MIN TEMP:  49; 6HR MAX TEMP:  55;

DES MOINES IA  PTSUNNY   71  48  43 SE9       29.47F
6HR MIN TEMP:  57; 6HR MAX TEMP:  72; 6HR PCP: TRACE;

DAVENPORT IA   PTSUNNY   71  48  43 SE12      29.55F
6HR MIN TEMP:  56; 6HR MAX TEMP:  71; 6HR PCP: TRACE;

CHICAGO IL     PTSUNNY   75  49  39 S12G21    29.64F
6HR MIN TEMP:  57; 6HR MAX TEMP:  76;

EAU CLAIRE WI  FAIR      73  41  31 SE15      29.52F
6HR MIN TEMP:  57; 6HR MAX TEMP:  73;

LA CROSSE WI   PTSUNNY   72  44  36 S10       29.54F
6HR MIN TEMP:  59; 6HR MAX TEMP:  73;

$$

  *****  SOME NATIONAL WEATHER *****

CITY           SKY/WX    TMP DP  RH WIND       PRES   REMARKS
LA GUARDIA NY  CLOUDY    55  51  86 NE23G32   30.02F



USA.gov is the U.S. government's official web portal to all federal, state and local government web resources and services.